Tallahassee, FL

9:05 AM EDT on September 21, 2017 (GMT -0400)
Tallahassee Regional

Weather History for KTLH - July, 2012

Change the Weather History Date:

Thursday, July 5, 2012

  Actual Average Record
Temperature  
Mean Temperature 83 °F 82 °F  
Max Temperature 95 °F 92 °F 101 °F (1998)
Min Temperature 71 °F 72 °F 64 °F (2014)
Degree Days  
Heating Degree Days 0    
Month to date heating degree days 0  
Since 1 June heating degree days 0  
Since 1 July heating degree days 0  
Cooling Degree Days 18    
Month to date cooling degree days 97  
Year to date cooling degree days 1329  
Since 1 June cooling degree days 552  
Growing Degree Days 33 (Base 50)    
Moisture  
Dew Point 71 °F    
Average Humidity 67    
Maximum Humidity 93    
Minimum Humidity 41    
Precipitation  
Precipitation T in 0.23 in 2.10 in (1989)
Month to date precipitation 1.32 1.16  
Year to date precipitation 31.36 30.55  
Sea Level Pressure  
Sea Level Pressure 30.02 in    
Wind  
Wind Speed 4 mph (WSW)    
Max Wind Speed 15 mph    
Max Gust Speed 20 mph    
Visibility 10 miles    
Events Thunderstorm    
T = Trace of Precipitation, MM = Missing Value Source: NWS Daily Summary

Daily Weather History Graph

Daily Weather History Graph

Search for Another Location

Airport or City:

Trip Planner

Search our weather history database for the weather conditions in past years. The results will help you decide how hot, cold, wet, or windy it might be!

Date:

Astronomy

Jul. 05, 2012 Rise Set
Actual Time 6:40 AM EDT 8:43 PM EDT
Civil Twilight 6:13 AM EDT 9:10 PM EDT
Nautical Twilight 5:40 AM EDT 9:43 PM EDT
Astronomical Twilight 5:04 AM EDT 10:19 PM EDT
Moon 10:12 PM EDT (7/5) 8:41 AM EDT (7/5)
Length of Visible Light 14h 57m
Length of Day
14h 02m
Waning Gibbous, 95% of the Moon is Illuminated
Jul 5
Waning Gibbous
Jul 10
Last Quarter
Jul 19
New
Jul 26
First Quarter
Aug 1
Full

Hourly Weather History & Observations

Time (EDT) Temp. Heat Index Dew Point Humidity Pressure Visibility Wind Dir Wind Speed Gust Speed Precip Events Conditions
12:53 AM 75.0 °F - 71.1 °F 87% 30.04 in 10.0 mi Calm Calm - N/A   Clear
1:53 AM 73.0 °F - 70.0 °F 90% 30.04 in 10.0 mi Calm Calm - N/A   Clear
2:53 AM 72.0 °F - 70.0 °F 93% 30.03 in 10.0 mi Calm Calm - 0.01 in   Clear
3:53 AM 72.0 °F - 69.1 °F 91% 30.02 in 9.0 mi SSE 3.5 mph - N/A   Clear
4:53 AM 72.0 °F - 70.0 °F 93% 30.03 in 10.0 mi Calm Calm - N/A   Clear
5:53 AM 73.0 °F - 69.1 °F 87% 30.03 in 10.0 mi Calm Calm - 0.01 in   Clear
6:53 AM 72.0 °F - 69.1 °F 91% 30.04 in 9.0 mi Calm Calm - 0.01 in   Clear
7:53 AM 73.9 °F - 71.1 °F 91% 30.05 in 9.0 mi Calm Calm - 0.01 in   Clear
8:53 AM 79.0 °F - 73.9 °F 84% 30.06 in 8.0 mi West 4.6 mph - N/A   Clear
9:53 AM 84.0 °F 91.2 °F 73.9 °F 72% 30.07 in 10.0 mi West 8.1 mph - N/A   Clear
10:53 AM 87.1 °F 92.8 °F 71.1 °F 59% 30.07 in 10.0 mi West 5.8 mph - N/A   Scattered Clouds
11:53 AM 88.0 °F 92.9 °F 70.0 °F 55% 30.06 in 10.0 mi WNW 6.9 mph - N/A   Scattered Clouds
12:53 PM 91.0 °F 94.3 °F 66.9 °F 45% 30.04 in 10.0 mi NNW 5.8 mph - N/A   Partly Cloudy
1:53 PM 91.0 °F 95.2 °F 68.0 °F 47% 30.03 in 10.0 mi WNW 3.5 mph - N/A   Scattered Clouds
2:53 PM 93.9 °F 97.5 °F 66.9 °F 41% 30.01 in 10.0 mi NNW 5.8 mph - N/A   Partly Cloudy
3:53 PM 93.0 °F 95.9 °F 66.0 °F 41% 29.99 in 10.0 mi Calm Calm - N/A   Scattered Clouds
4:34 PM 91.4 °F 98.4 °F 71.6 °F 52% 29.98 in 10.0 mi South 10.4 mph - N/A Thunderstorm Thunderstorm
4:53 PM 89.1 °F 95.0 °F 71.1 °F 55% 29.98 in 10.0 mi South 12.7 mph - N/A Thunderstorm Thunderstorm
5:14 PM 84.2 °F 89.6 °F 71.6 °F 66% 29.98 in 10.0 mi South 12.7 mph 19.6 mph N/A   Mostly Cloudy
5:53 PM 87.1 °F 93.6 °F 72.0 °F 61% 29.96 in 10.0 mi SSW 5.8 mph - 0.00 in   Scattered Clouds
6:53 PM 88.0 °F 92.1 °F 69.1 °F 53% 29.97 in 10.0 mi SSW 9.2 mph - N/A   Partly Cloudy
7:53 PM 84.9 °F 90.1 °F 71.1 °F 63% 29.98 in 10.0 mi SW 8.1 mph - N/A   Partly Cloudy
8:53 PM 82.9 °F 88.8 °F 73.0 °F 72% 29.98 in 10.0 mi WSW 4.6 mph - N/A   Partly Cloudy
9:53 PM 81.0 °F 86.2 °F 73.9 °F 79% 30.00 in 10.0 mi SSW 3.5 mph - N/A   Clear
10:53 PM 80.1 °F 84.2 °F 73.0 °F 79% 30.01 in 10.0 mi Calm Calm - N/A   Clear
11:53 PM 79.0 °F - 73.0 °F 82% 30.02 in 10.0 mi Calm Calm - N/A   Clear